Location: Banksville Park
(38.5557°N, 75.1182°W)
Time: 12:02:01
(UTC+00:00)

X-37B - Pass Details

Date: 19 September 2020
Orbit: 382 x 392 km, 45.0° (Epoch: 15 October)

Event Time Altitude Azimuth Distance (km) Brightness Sun altitude
Exits shadow 08:38:14 20° 27° (NNE) 945 3.0 -25.1°
Drops below altitude 10° 08:39:52 10° 54° (NE) 1,403 4.4 -24.8°
Sets 08:42:11 0° 69° (ENE) 2,259 5.9 -24.3°
